Wasilla, AK

4:45 AM AKDT on October 17, 2017 (GMT -0800)
Wasilla

Weather History for PAWS - January, 2014

Change the Weather History Date:

Tuesday, January 7, 2014

  Actual Average Record
Temperature  
Mean Temperature 30 °F -  
Max Temperature 35 °F 22 °F 43 °F (1981)
Min Temperature 24 °F 5 °F -28 °F (1950)
Degree Days  
Heating Degree Days 36    
Moisture  
Dew Point 18 °F    
Average Humidity 57    
Maximum Humidity 74    
Minimum Humidity 48    
Precipitation  
Precipitation 0.00 in - - ()
Sea Level Pressure  
Sea Level Pressure 29.53 in    
Wind  
Wind Speed 3 mph (ENE)    
Max Wind Speed 12 mph    
Max Gust Speed -    
Visibility 10 miles    
Events      
Averages and records for this station are not official NWS values.
T = Trace of Precipitation, MM = Missing Value Source: NWS Daily Summary

Daily Weather History Graph

Daily Weather History Graph

Search for Another Location

Airport or City:

Trip Planner

Search our weather history database for the weather conditions in past years. The results will help you decide how hot, cold, wet, or windy it might be!

Date:

Astronomy

Jan. 07, 2014 Rise Set
Actual Time 10:10 AM AKST 3:59 PM AKST
Civil Twilight 9:10 AM AKST 4:59 PM AKST
Nautical Twilight 8:10 AM AKST 5:58 PM AKST
Astronomical Twilight 7:17 AM AKST 6:52 PM AKST
Moon 11:44 AM AKST (1/7) 12:54 AM AKST (1/7)
Length of Visible Light 7h 49m
Length of Day
5h 49m
Waxing Crescent, 47% of the Moon is Illuminated
Jan 7
Waxing Crescent
Jan 7
First Quarter
Jan 15
Full
Jan 23
Last Quarter
Jan 30
New

Hourly Weather History & Observations

Time (AKST) Temp. Windchill Dew Point Humidity Pressure Visibility Wind Dir Wind Speed Gust Speed Precip Events Conditions
12:16 AM 30.2 °F - 19.4 °F 64% 29.66 in 10.0 mi Calm Calm - N/A   Clear
12:36 AM 28.4 °F - 17.6 °F 64% 29.65 in 10.0 mi Calm Calm - N/A   Clear
12:56 AM 30.2 °F 26.7 °F 17.6 °F 60% 29.65 in 10.0 mi East 3.5 mph - N/A   Clear
1:16 AM 32.0 °F - 19.4 °F 60% 29.65 in 10.0 mi Calm Calm - N/A   Clear
1:36 AM 32.0 °F - 19.4 °F 60% 29.65 in 10.0 mi Calm Calm - N/A   Clear
1:56 AM 30.2 °F - 19.4 °F 64% 29.65 in 10.0 mi Calm Calm - N/A   Clear
2:16 AM 30.2 °F - 19.4 °F 64% 29.65 in 10.0 mi Calm Calm - N/A   Clear
2:36 AM 30.2 °F - 19.4 °F 64% 29.65 in 10.0 mi Calm Calm - N/A   Clear
2:56 AM 28.4 °F - 17.6 °F 64% 29.65 in 10.0 mi Calm Calm - N/A   Clear
3:16 AM 30.2 °F 25.4 °F 17.6 °F 60% 29.65 in 10.0 mi East 4.6 mph - N/A   Clear
3:36 AM 32.0 °F 27.5 °F 17.6 °F 55% 29.64 in 10.0 mi ENE 4.6 mph - N/A   Clear
3:56 AM 32.0 °F 28.7 °F 17.6 °F 55% 29.64 in 10.0 mi ENE 3.5 mph - N/A   Clear
4:16 AM 30.2 °F - 15.8 °F 55% 29.63 in 10.0 mi Calm Calm - N/A   Clear
4:36 AM 33.8 °F 28.6 °F 17.6 °F 52% 29.63 in 10.0 mi East 5.8 mph - N/A   Clear
4:56 AM - - - N/A% 29.61 in 10.0 mi East 5.8 mph - N/A   Clear
5:16 AM 33.8 °F 28.6 °F 17.6 °F 52% 29.62 in 10.0 mi ENE 5.8 mph - N/A   Clear
5:36 AM - - - N/A% 29.60 in 10.0 mi ENE 8.1 mph - N/A   Clear
5:56 AM - - - N/A% 29.59 in 10.0 mi ENE 6.9 mph - N/A   Clear
6:16 AM 33.8 °F 28.6 °F 17.6 °F 52% 29.59 in 10.0 mi East 5.8 mph - N/A   Clear
6:36 AM 33.8 °F 30.8 °F 17.6 °F 52% 29.59 in 10.0 mi East 3.5 mph - N/A   Clear
6:56 AM 33.8 °F - 17.6 °F 52% 29.58 in 10.0 mi Calm Calm - N/A   Clear
7:16 AM 35.6 °F 32.8 °F 17.6 °F 48% 29.58 in 10.0 mi East 3.5 mph - N/A   Clear
7:36 AM 35.6 °F 29.9 °F 17.6 °F 48% 29.58 in 10.0 mi ENE 6.9 mph - N/A   Clear
7:56 AM 35.6 °F 29.9 °F 17.6 °F 48% 29.57 in 10.0 mi ENE 6.9 mph - N/A   Clear
8:16 AM 35.6 °F 31.7 °F 17.6 °F 48% 29.57 in 10.0 mi East 4.6 mph - N/A   Clear
8:36 AM 35.6 °F 31.7 °F 17.6 °F 48% 29.57 in 10.0 mi ENE 4.6 mph - N/A   Clear
8:56 AM 35.6 °F 29.9 °F 19.4 °F 52% 29.56 in 10.0 mi ENE 6.9 mph - N/A   Clear
9:16 AM 35.6 °F 29.9 °F 19.4 °F 52% 29.56 in 10.0 mi ENE 6.9 mph - N/A   Clear
9:36 AM 35.6 °F - 17.6 °F 48% 29.56 in 10.0 mi Calm Calm - N/A   Clear
9:56 AM 35.6 °F 30.7 °F 19.4 °F 52% 29.56 in 10.0 mi ENE 5.8 mph - N/A   Clear
10:16 AM 35.6 °F 31.7 °F 17.6 °F 48% 29.56 in 10.0 mi ENE 4.6 mph - N/A   Clear
10:36 AM 35.6 °F - 17.6 °F 48% 29.56 in 10.0 mi Calm Calm - N/A   Clear
10:56 AM 33.8 °F - 17.6 °F 52% 29.56 in 10.0 mi Calm Calm - N/A   Clear
11:16 AM 35.6 °F - 17.6 °F 48% 29.56 in 10.0 mi Calm Calm - N/A   Clear
11:36 AM 33.8 °F 28.6 °F 17.6 °F 52% 29.56 in 10.0 mi NE 5.8 mph - N/A   Clear
11:56 AM 30.2 °F - 15.8 °F 55% 29.56 in 10.0 mi Calm Calm - N/A   Clear
12:16 PM 30.2 °F - 17.6 °F 60% 29.55 in 10.0 mi Calm Calm - N/A   Clear
12:36 PM 28.4 °F - 19.4 °F 69% 29.55 in 10.0 mi Calm Calm - N/A   Clear
12:56 PM 28.4 °F 24.6 °F 19.4 °F 69% 29.55 in 10.0 mi ENE 3.5 mph - N/A   Partly Cloudy
1:16 PM 28.4 °F - 17.6 °F 64% 29.55 in 10.0 mi Calm Calm - N/A   Clear
1:36 PM 28.4 °F - 19.4 °F 69% 29.53 in 10.0 mi Calm Calm - N/A   Clear
1:56 PM 28.4 °F - 19.4 °F 69% 29.53 in 10.0 mi Calm Calm - N/A   Clear
2:16 PM 30.2 °F 23.4 °F 21.2 °F 69% 29.52 in 10.0 mi ENE 6.9 mph - N/A   Clear
2:36 PM 35.6 °F 31.7 °F 17.6 °F 48% 29.51 in 10.0 mi ENE 4.6 mph - N/A   Clear
2:56 PM 35.6 °F 29.2 °F 17.6 °F 48% 29.51 in 10.0 mi ENE 8.1 mph - N/A   Clear
3:16 PM 35.6 °F 28.0 °F 17.6 °F 48% 29.50 in 10.0 mi ENE 10.4 mph - N/A   Partly Cloudy
3:36 PM - - - N/A% 29.49 in 10.0 mi NE 11.5 mph - N/A   Clear
3:56 PM 33.8 °F 27.7 °F 17.6 °F 52% 29.49 in 10.0 mi ENE 6.9 mph - N/A   Clear
4:16 PM 35.6 °F 32.8 °F 19.4 °F 52% 29.48 in 10.0 mi ENE 3.5 mph - N/A   Clear
4:36 PM 35.6 °F 32.8 °F 19.4 °F 52% 29.48 in 10.0 mi ENE 3.5 mph - N/A   Clear
4:56 PM 33.8 °F 30.8 °F 17.6 °F 52% 29.48 in 10.0 mi SW 3.5 mph - N/A   Clear
5:16 PM 33.8 °F 29.6 °F 19.4 °F 56% 29.47 in 10.0 mi ESE 4.6 mph - N/A   Clear
5:36 PM 33.8 °F - 17.6 °F 52% 29.47 in 10.0 mi Calm Calm - N/A   Clear
5:56 PM 33.8 °F 28.6 °F 17.6 °F 52% 29.46 in 10.0 mi East 5.8 mph - N/A   Clear
6:16 PM - - - N/A% 29.45 in 10.0 mi ENE 9.2 mph - N/A   Clear
6:36 PM 33.8 °F 28.6 °F 17.6 °F 52% 29.45 in 10.0 mi ENE 5.8 mph - N/A   Clear
6:56 PM 30.2 °F 24.3 °F 17.6 °F 60% 29.45 in 10.0 mi ENE 5.8 mph - N/A   Clear
7:16 PM 26.6 °F - 17.6 °F 69% 29.44 in 10.0 mi Calm Calm - N/A   Partly Cloudy
7:36 PM 26.6 °F - 17.6 °F 69% 29.44 in 10.0 mi Calm Calm - N/A   Clear
7:56 PM 33.8 °F 27.7 °F 17.6 °F 52% 29.43 in 10.0 mi ENE 6.9 mph - N/A   Scattered Clouds
8:16 PM - - - N/A% 29.42 in 10.0 mi ENE 9.2 mph - N/A   Mostly Cloudy
8:36 PM - - - N/A% 29.42 in 10.0 mi ENE 6.9 mph - N/A   Mostly Cloudy
8:56 PM - - - N/A% 29.41 in 10.0 mi ENE 8.1 mph - N/A   Overcast
9:16 PM - - - N/A% 29.41 in 10.0 mi ENE 8.1 mph - N/A   Overcast
9:36 PM 30.2 °F 25.4 °F 17.6 °F 60% 29.41 in 10.0 mi SW 4.6 mph - N/A   Overcast
9:56 PM 24.8 °F - 17.6 °F 74% 29.41 in 10.0 mi Calm Calm - N/A   Overcast
10:16 PM 24.8 °F - 17.6 °F 74% 29.41 in 10.0 mi Calm Calm - N/A   Overcast
10:36 PM 28.4 °F 23.3 °F 19.4 °F 69% 29.40 in 10.0 mi ENE 4.6 mph - N/A   Overcast
10:56 PM 32.0 °F 27.5 °F 17.6 °F 55% 29.40 in 10.0 mi East 4.6 mph - N/A   Mostly Cloudy
11:16 PM 32.0 °F 25.6 °F 19.4 °F 60% 29.40 in 10.0 mi ENE 6.9 mph - N/A   Mostly Cloudy
11:36 PM 33.8 °F 26.4 °F 19.4 °F 56% 29.40 in 10.0 mi ENE 9.2 mph - N/A   Scattered Clouds
11:56 PM - - - N/A% 29.39 in 10.0 mi ENE 8.1 mph - N/A   Clear